Location: La Chapelle
(48.3135°N, 1.3085°W)
Time: 20:00:13
(UTC+00:00)

Resurs 1-3 - Pass Details

Date: 03 March 2021
Orbit: 629 x 633 km, 97.9° (Epoch: 14 April)

Event Time Altitude Azimuth Distance (km) Brightness Sun altitude
Exits shadow 19:38:49 38° 84° (E) 977 4.1 -18.4°
Maximum altitude 19:39:16 39° 68° (ENE) 958 4.1 -18.5°
Drops below altitude 10° 19:43:22 10° 0° (N) 2,028 6.3 -19.1°
Sets 19:45:40 0° 353° (N) 2,941 7.3 -19.5°
